This is the latest recevied weather packets stored in our database for station/object KF7SOJ. If no packets are shown the sender has not sent any weather packets the latest 10 day(s).
| Time | Temp. | Humidity | Pressure | Rain* | Wind** | Luminosity | Snow |
|---|---|---|---|---|---|---|---|
| 1777659203 | 20° C | 23% | 935 hPa | 0 mm | - | 924 W/m² | - |
| 1777658900 | 19.44° C | 22% | 935.1 hPa | 0 mm | - | 920 W/m² | - |
| 1777656779 | 19.44° C | 22% | 935.1 hPa | 0 mm | - | 866 W/m² | - |
| 1777656170 | 18.89° C | 30% | 935.2 hPa | 0 mm | - | 846 W/m² | - |
| 1777655866 | 18.33° C | 29% | 935.1 hPa | 0 mm | - | 837 W/m² | - |
| 1777655563 | 17.78° C | 32% | 935.1 hPa | 0 mm | - | 829 W/m² | - |
| 1777655260 | 17.78° C | 31% | 935.4 hPa | 0 mm | - | 814 W/m² | - |
| 1777654957 | 17.78° C | 32% | 935.3 hPa | 0 mm | - | 807 W/m² | - |
| 1777654352 | 17.78° C | 34% | 935.4 hPa | 0 mm | - | 779 W/m² | - |
| 1777653442 | 16.67° C | 38% | 935.3 hPa | 0 mm | - | 746 W/m² | - |
| 1777653139 | 16.11° C | 36% | 935.3 hPa | 0 mm | - | 734 W/m² | - |
| 1777652835 | 16.11° C | 36% | 935.2 hPa | 0 mm | - | 720 W/m² | - |
| 1777652532 | 16.11° C | 38% | 935.4 hPa | 0 mm | - | 704 W/m² | - |
| 1777652229 | 16.11° C | 37% | 935.5 hPa | 0 mm | - | 670 W/m² | - |
| 1777651927 | 16.11° C | 36% | 935.5 hPa | 0 mm | - | 678 W/m² | - |
| 1777651623 | 16.11° C | 37% | 935.5 hPa | 0 mm | - | 658 W/m² | - |
| 1777651017 | 15.56° C | 37% | 935.5 hPa | 0 mm | - | 629 W/m² | - |
| 1777650714 | 15.56° C | 36% | 935.6 hPa | 0 mm | - | 617 W/m² | - |
| 1777650411 | 15° C | 38% | 935.6 hPa | 0 mm | - | 602 W/m² | - |
| 1777650108 | 14.44° C | 39% | 935.5 hPa | 0 mm | - | 587 W/m² | - |
| 1777649805 | 13.89° C | 41% | 935.8 hPa | 0 mm | - | 570 W/m² | - |
| 1777649502 | 13.33° C | 41% | 935.7 hPa | 0 mm | - | 552 W/m² | - |
| 1777649199 | 12.78° C | 41% | 935.8 hPa | 0 mm | - | 534 W/m² | - |
| 1777648896 | 12.78° C | 42% | 935.6 hPa | 0 mm | - | 517 W/m² | - |
| 1777648593 | 12.22° C | 42% | 935.8 hPa | 0 mm | - | 499 W/m² | - |
* Rain latest hour (hover to see other rain measurements)
** Current wind speed in m/s (hover to see current wind gust speed)